Regional Weather Roundup
Issued by NWS

Home | Current Version | Previous Version | Graphics & Text | Print | Product List | Glossary On
Versions: 1 2 3 4 5 6 7 8 9 10 11 12 13 14 15 16 17 18 19 20 21 22 23 24 25 26 27 28 29 30 31 32 33 34 35 36 37 38 39 40 41 42 43 44 45 46 47 48 49 50
000
ASUS43 KMKX 252000
RWRWI

WISCONSIN REGIONAL WEATHER ROUNDUP
NATIONAL WEATHER SERVICE MILWAUKEE/SULLIVAN WI
300 PM CDT WED APR 25 2018

NOTE: "FAIR" INDICATES FEW OR NO CLOUDS BELOW 12,000 FEET WITH NO
SIGNIFICANT WEATHER AND/OR OBSTRUCTIONS TO VISIBILITY.

WIZ001-002-006>008-014>016-023>028-252100-
NORTHWEST WISCONSIN

CITY           SKY/WX    TMP DP  RH WIND       PRES   REMARKS
SUPERIOR ARPT  FAIR      56  25  30 W6        30.09F
ASHLAND        FAIR      52  26  36 NW6       30.10F
HAYWARD        FAIR      54  21  27 VRB5      30.09F
SIREN          FAIR      55  22  27 CALM      30.11F
CUMBERLAND     FAIR      50  27  40 NW6       30.12F
RICE LAKE      FAIR      53  27  37 SW3       30.13F
CHETEK         FAIR      52  28  40 N6        30.12F
LADYSMITH      FAIR      54  26  33 W3        30.12F
EAU CLAIRE     NOT AVBL
MENOMONIE      FAIR      57  22  26 N7        30.11F
NEW RICHMOND   FAIR      55  22  28 NW3       30.13F
OSCEOLA        FAIR      55  24  30 E3        30.15F
$$

WIZ003>005-009-010-017-018-252100-
NORTH CENTRAL WISCONSIN

CITY           SKY/WX    TMP DP  RH WIND       PRES   REMARKS
MANITOWISH WTR FAIR      47  20  34 CALM      30.08F
ARBOR VITAE    FAIR      49  24  37 NW8       30.08F
WOODRUFF       FAIR      49  24  37 NW8       30.08F
RHINELANDER    FAIR      51  24  34 MISG      30.08F
EAGLE RIVER    FAIR      49  19  30 NW7       30.07F
LAND O LAKES   FAIR      48  19  32 N7        30.09F
PHILLIPS       FAIR      52  23  32 CALM      30.08F
TOMAHAWK       FAIR      51  20  29 NW7       30.09F
MEDFORD        FAIR      49  27  41 NW7       30.09F
MERRILL        FAIR      52  25  35 NW5       30.09F
$$

WIZ029-030-035-036-043>047-252100-
CENTRAL WISCONSIN

CITY           SKY/WX    TMP DP  RH WIND       PRES   REMARKS
WAUSAU         FAIR      53  25  33 W9        30.06F
MOSINEE        SUNNY     54  28  37 NW7       30.10F
MARSHFIELD     FAIR      53  30  41 NE6       30.08F
STEVENS POINT  FAIR      50  26  39 NW8       30.10F
WAUPACA        FAIR      56  27  33 W10       30.09F
WAUTOMA        FAIR      55  26  32 W7        30.08F
WISC RAPIDS    FAIR      55  27  34 N13       30.10F
CAMP DOUGLAS   NOT AVBL
$$

WIZ011>013-019>022-031-037>040-048>050-252100-
NORTHEAST WISCONSIN

CITY           SKY/WX    TMP DP  RH WIND       PRES   REMARKS
ANTIGO         FAIR      49  30  47 NW8       30.08F
SHAWANO        FAIR      56  28  33 E5        30.07F
OCONTO         FAIR      48  30  49 E7        30.09F
STURGEON BAY   FAIR      47  28  47 N8        30.08F
GREEN BAY      FAIR      52  35  52 N10       30.08F
MANITOWOC      FAIR      49  30  48 N10       30.08F
APPLETON       MOSUNNY   52  27  37 NW9       30.08F
CLINTONVILLE   FAIR      54  26  33 W6        30.08F
OSHKOSH        FAIR      50  33  52 NE7       30.09F
$$

WIZ032>034-041-042-053>061-252100-
SOUTHWEST WISCONSIN

CITY           SKY/WX    TMP DP  RH WIND       PRES   REMARKS
LA CROSSE      FAIR      59  31  34 W9        30.09F
SPARTA         FAIR      58  28  32 CALM      30.10F
VIROQUA        FAIR      56  32  40 N6        30.09F
BOSCOBEL       FAIR      64  29  26 N9        30.07F
PRAIRIE DU CHI FAIR      60  23  24 NW10      30.09F
PLATTEVILLE    FAIR      59  31  35 CALM      30.07F
$$

WIZ056-057-062-063-064-067-068-252100-
SOUTH CENTRAL WISCONSIN

CITY           SKY/WX    TMP DP  RH WIND       PRES   REMARKS
REEDSBURG      FAIR      56  29  35 N10       30.07F
BARABOO/DELLS  FAIR      56  24  28 NE9       30.08F
LONE ROCK      FAIR      61  29  29 NW10      30.07F
MINERAL POINT  FAIR      61  28  29 N7        30.07F
MADISON        FAIR      58  29  33 N12G20    30.06F
MIDDLETON      FAIR      59  26  28 CALM      30.08F
WATERTOWN      FAIR      54  32  43 N5        30.07F
MONROE         FAIR      59  30  33 N8G17     30.06F
JANESVILLE     SUNNY     61  28  29 N8        30.06F
$$

WIZ051-052-058>065-066-070>072-252100-
SOUTHEAST WISCONSIN

CITY           SKY/WX    TMP DP  RH WIND       PRES   REMARKS
MILWAUKEE      FAIR      45  31  58 NE18G25   30.10S
WAUKESHA       NOT AVBL
MILWAUKEE/TIMM SUNNY     48  27  43 E10       30.09S
RACINE         FAIR      47  32  56 N15G23    30.10F
BURLINGTON     FAIR      58  29  34 NW14      30.06F
KENOSHA        FAIR      51  31  46 NE15      30.08S
FOND DU LAC    FAIR      51  33  50 NE12      30.09F
SHEBOYGAN      FAIR      49  35  58 NE13      30.08F
WEST BEND      FAIR      52  32  46 NW7       30.07F
JUNEAU         FAIR      52  32  45 NW7       30.09F
$$

LSZ147-162-252100-
LAKE SUPERIOR

STATION/POSITION TIME  TEMP    WIND        PRES    WAVE
                       AIR SEA DIR/SP/G            HT/PER
                 (UTC) (F)     (DEG/KT/KT) (MB)    (FT/S)
DEVILS ISLAND    1900   40     140/  5/  7 1021.2F
SAXON HARBOR     1940   37      30/  2/  3 1020.0F
$$

LMZ867-665-643>646-252100-
LAKE MICHIGAN

STATION/POSITION TIME  TEMP    WIND        PRES    WAVE
                       AIR SEA DIR/SP/G            HT/PER
                 (UTC) (F)     (DEG/KT/KT) (MB)    (FT/S)
NORTHPORT PIER   1940   42                 1018.6F
KEWAUNEE LAKESHO 1930   45      80/  6/  9 1018.3F
SHEBOYGAN LAKESH 1900   38      40/ 14/ 15 1019.7F
PORT WASHINGTON  1930   42      40/ 13/ 16 1020.0F
MILWAUKEE LAKESH 1930   39      30/ 10/ 12   N/A
KENOSHA   LAKESH 1900   39                 1019.3
$$

TC  - TEMPERATURE IN CELSIUS
VSB - VISIBILITY IN STATUTE MILES
WCI - WIND CHILL INDEX
HX  - HEAT INDEX




USA.gov is the U.S. government's official web portal to all federal, state and local government web resources and services.